Weather History for Hatteras, NC

Change the Weather History Date:

Tuesday, June 3, 2014

  Actual Average Record
Temperature  
Mean Temperature 68 °F 72 °F  
Max Temperature 79 °F 78 °F 91 °F (1895)
Min Temperature 56 °F 66 °F 44 °F (1966)
Degree Days  
Heating Degree Days 0 0  
Month to date heating degree days 0 0  
Since 1 June heating degree days 0 0  
Since 1 July heating degree days 2534 2584  
Cooling Degree Days 3 7  
Month to date cooling degree days 7 21  
Year to date cooling degree days 243 164  
Since 1 June cooling degree days 7 21  
Growing Degree Days 17 (Base 50)    
Moisture  
Dew Point 61 °F    
Average Humidity 72    
Maximum Humidity 86    
Minimum Humidity 58    
Precipitation  
Precipitation 0.00 in 0.12 in 1.56 in (2013)
Month to date precipitation 0.00 0.34  
Year to date precipitation 22.79 21.58  
Snow  
Snow 0.00 in - - ()
Month to date snowfall 0.0  
Since 1 July snowfall 5.7  
Snow Depth 0.00 in    
Sea Level Pressure  
Sea Level Pressure 30.04 in    
Wind  
Wind Speed 8 mph (WSW)    
Max Wind Speed 14 mph    
Max Gust Speed 21 mph    
Visibility 10 miles    
Events      
T = Trace of Precipitation, MM = Missing Value Source: NWS Daily Summary

Daily Weather History Graph

Daily Weather History Graph

Search for Another Location

Airport:

Trip Planner

Search our weather history database for the weather conditions in past years. The results will help you decide how hot, cold, wet, or windy it might be!

Date:

Astronomy

Jun. 03, 2014 Rise Set
Actual Time 5:48 AM EDT 8:13 PM EDT
Civil Twilight 5:19 AM EDT 8:42 PM EDT
Nautical Twilight 4:42 AM EDT 9:18 PM EDT
Astronomical Twilight 4:03 AM EDT 9:58 PM EDT
Moon 11:01 AM EDT (6/3) No Moon Set
Length of Visible Light 15h 23m
Length of Day
14h 24m
Waxing Crescent, 30% of the Moon is Illuminated
Jun 3
Waxing Crescent
Jun 5
First Quarter
Jun 13
Full
Jun 19
Last Quarter
Jun 27
New

Hourly Weather History & Observations

Time (EDT) Temp. Dew Point Humidity Pressure Visibility Wind Dir Wind Speed Gust Speed Precip Events Conditions
12:51 AM 59.0 °F 54.0 °F 83% 30.15 in 10.0 mi Calm Calm - N/A   Clear
1:51 AM 57.0 °F 53.1 °F 87% 30.14 in 10.0 mi Calm Calm - N/A   Clear
2:51 AM 57.0 °F 53.1 °F 87% 30.13 in 10.0 mi Calm Calm - N/A   Clear
3:51 AM 55.9 °F 52.0 °F 87% 30.12 in 10.0 mi Calm Calm - N/A   Clear
4:51 AM 55.9 °F 52.0 °F 87% 30.10 in 5.0 mi Calm Calm - N/A   Clear
5:51 AM 57.9 °F 54.0 °F 87% 30.10 in 9.0 mi WSW 3.5 mph - N/A   Clear
6:51 AM 66.0 °F 60.1 °F 81% 30.11 in 10.0 mi West 5.8 mph - N/A   Clear
7:51 AM 71.1 °F 62.1 °F 73% 30.11 in 10.0 mi Variable 5.8 mph - N/A   Clear
8:51 AM 73.0 °F 62.1 °F 68% 30.11 in 10.0 mi West 9.2 mph - N/A   Clear
9:51 AM 75.0 °F 61.0 °F 62% 30.09 in 10.0 mi West 12.7 mph 20.7 mph N/A   Clear
10:51 AM 75.9 °F 62.1 °F 62% 30.08 in 10.0 mi West 8.1 mph 18.4 mph N/A   Clear
11:51 AM 78.1 °F 62.1 °F 58% 30.08 in 10.0 mi West 11.5 mph 16.1 mph N/A   Clear
12:51 PM 78.1 °F 63.0 °F 60% 30.06 in 10.0 mi WSW 9.2 mph - N/A   Clear
1:51 PM 79.0 °F 64.0 °F 60% 30.04 in 10.0 mi SW 6.9 mph - N/A   Clear
2:51 PM 78.1 °F 64.9 °F 64% 30.02 in 10.0 mi SW 10.4 mph - N/A   Clear
3:51 PM 78.1 °F 64.9 °F 64% 29.99 in 10.0 mi SW 11.5 mph - N/A   Clear
4:51 PM 75.9 °F 64.0 °F 67% 29.97 in 10.0 mi SW 10.4 mph - N/A   Clear
5:51 PM 75.9 °F 64.9 °F 69% 29.95 in 10.0 mi SW 12.7 mph - N/A   Clear
6:51 PM 73.9 °F 64.9 °F 73% 29.95 in 10.0 mi SW 10.4 mph 19.6 mph N/A   Clear
7:51 PM 73.0 °F 64.0 °F 73% 29.95 in 10.0 mi SW 11.5 mph - N/A   Clear
8:51 PM 73.0 °F 64.0 °F 73% 29.94 in 10.0 mi WSW 11.5 mph - N/A   Clear
9:51 PM 72.0 °F 64.9 °F 78% 29.95 in 10.0 mi WSW 11.5 mph - N/A   Clear
10:51 PM 73.0 °F 66.0 °F 79% 29.95 in 10.0 mi WSW 12.7 mph - N/A   Clear
11:51 PM 73.0 °F 66.0 °F 79% 29.94 in 10.0 mi WSW 12.7 mph - N/A   Scattered Clouds